• In Hungary
  • List of Countries
  • For 7 days
  • Water Temperature
  • Satellite Maps
  • Weather Map
  • News
  • Weather Widgets
  • user-avatar
    Login

    Hourly Weather Vrchlabi

    Today, 14 December, Thursday

    Time Temperature Precipitation Wind Pressure Humidity
    00:00 -3°C° 0 mm 6 mps 705 mmHg 63%
    01:00 -2°C° 0 mm 7 mps 703 mmHg 62%
    02:00 -2°C° 0.3 mm 7 mps 702 mmHg 65%
    03:00 -2°C° 0.3 mm 7 mps 702 mmHg 68%
    04:00 -2°C° 0.3 mm 7 mps 701 mmHg 71%
    05:00 -2°C° 0.5 mm 7 mps 701 mmHg 72%
    06:00 -1°C° 0.5 mm 7 mps 700 mmHg 74%
    07:00 -1°C° 0 mm 5 mps 700 mmHg 79%
    08:00 0°C° 0.4 mm 5 mps 700 mmHg 79%
    09:00 -1°C° 0.4 mm 6 mps 701 mmHg 80%
    10:00 0°C° 0.4 mm 7 mps 701 mmHg 80%
    11:00 0°C° 0 mm 8 mps 701 mmHg 74%
    12:00 0°C° 0 mm 8 mps 702 mmHg 68%
    13:00 0°C° 0 mm 9 mps 702 mmHg 62%
    14:00 -1°C° 0 mm 8 mps 703 mmHg 65%
    15:00 -1°C° 0 mm 6 mps 703 mmHg 67%
    16:00 -1°C° 0 mm 5 mps 703 mmHg 70%
    17:00 -1°C° 0 mm 5 mps 703 mmHg 72%
    18:00 -1°C° 0 mm 5 mps 703 mmHg 75%
    19:00 -1°C° 0 mm 5 mps 703 mmHg 77%
    20:00 -1°C° 0 mm 5 mps 703 mmHg 78%
    21:00 -1°C° 0 mm 5 mps 702 mmHg 80%
    22:00 -2°C° 0 mm 5 mps 702 mmHg 81%
    23:00 -2°C° 0 mm 5 mps 702 mmHg 82%

    Tomorrow, 15 December, Friday

    Time Temperature Precipitation Wind Pressure Humidity
    00:00 -2°C° 0 mm 4 mps 702 mmHg 83%
    01:00 -2°C° 0 mm 4 mps 702 mmHg 84%
    02:00 -2°C° 0 mm 4 mps 701 mmHg 84%
    03:00 -2°C° 0 mm 4 mps 701 mmHg 84%
    04:00 -2°C° 0 mm 4 mps 700 mmHg 84%
    05:00 -1°C° 0.2 mm 4 mps 700 mmHg 85%
    06:00 -1°C° 0.2 mm 4 mps 700 mmHg 86%
    07:00 -1°C° 0.2 mm 4 mps 700 mmHg 87%
    08:00 -1°C° 1 mm 5 mps 700 mmHg 86%
    09:00 -1°C° 1 mm 6 mps 700 mmHg 85%
    10:00 -1°C° 1 mm 6 mps 701 mmHg 84%
    11:00 -1°C° 0.2 mm 6 mps 701 mmHg 84%
    12:00 -1°C° 0.2 mm 6 mps 702 mmHg 83%
    13:00 -1°C° 0.2 mm 6 mps 702 mmHg 82%
    14:00 -1°C° 0 mm 5 mps 703 mmHg 82%
    15:00 -1°C° 0 mm 4 mps 703 mmHg 82%
    16:00 -1°C° 0 mm 3 mps 704 mmHg 83%
    17:00 -1°C° 0 mm 3 mps 704 mmHg 84%
    18:00 -2°C° 0 mm 2 mps 704 mmHg 85%
    19:00 -3°C° 0 mm 2 mps 705 mmHg 87%
    20:00 -3°C° 0 mm 2 mps 705 mmHg 87%
    21:00 -3°C° 0 mm 2 mps 705 mmHg 87%
    22:00 -3°C° 0 mm 2 mps 705 mmHg 87%
    23:00 -3°C° 0 mm 2 mps 706 mmHg 88%

    Day after tomorrow, 16 December, Saturday

    Time Temperature Precipitation Wind Pressure Humidity
    00:00 -3°C° 0 mm 2 mps 706 mmHg 89%
    01:00 -1°C° 0 mm 1 mps 706 mmHg 90%
    02:00 -1°C° 0 mm 1 mps 706 mmHg 91%
    03:00 -3°C° 0 mm 2 mps 706 mmHg 92%
    04:00 -3°C° 0 mm 2 mps 706 mmHg 92%
    05:00 -3°C° 0 mm 2 mps 706 mmHg 92%
    06:00 -3°C° 0 mm 2 mps 706 mmHg 92%
    07:00 -1°C° 0 mm 1 mps 707 mmHg 92%
    08:00 -2°C° 0 mm 2 mps 707 mmHg 90%
    09:00 -2°C° 0 mm 2 mps 708 mmHg 88%
    10:00 -1°C° 0 mm 2 mps 708 mmHg 86%
    11:00 -1°C° 0 mm 3 mps 708 mmHg 84%
    12:00 -1°C° 0 mm 3 mps 709 mmHg 82%
    13:00 0°C° 0 mm 3 mps 709 mmHg 80%
    14:00 -1°C° 0 mm 3 mps 709 mmHg 82%
    15:00 -1°C° 0 mm 3 mps 710 mmHg 84%
    16:00 -1°C° 0 mm 2 mps 710 mmHg 86%
    17:00 -2°C° 0.1 mm 2 mps 710 mmHg 87%
    18:00 -2°C° 0.1 mm 2 mps 711 mmHg 88%
    19:00 -2°C° 0.1 mm 2 mps 711 mmHg 89%
    20:00 -2°C° 0 mm 3 mps 712 mmHg 90%
    21:00 -4°C° 0 mm 3 mps 712 mmHg 90%
    22:00 -4°C° 0 mm 3 mps 712 mmHg 90%
    23:00 -4°C° 0 mm 3 mps 713 mmHg 90%

    17 December, Sunday

    Time Temperature Precipitation Wind Pressure Humidity
    00:00 -4°C° 0 mm 3 mps 713 mmHg 90%
    01:00 -4°C° 0 mm 3 mps 713 mmHg 90%
    02:00 -4°C° 0.1 mm 3 mps 714 mmHg 89%
    03:00 -4°C° 0.1 mm 4 mps 714 mmHg 88%
    04:00 -4°C° 0.1 mm 4 mps 714 mmHg 88%
    05:00 -4°C° 0.1 mm 4 mps 715 mmHg 87%
    06:00 -4°C° 0.1 mm 4 mps 715 mmHg 87%
    07:00 -4°C° 0.1 mm 4 mps 715 mmHg 87%
    08:00 -4°C° 0 mm 4 mps 716 mmHg 84%
    09:00 -4°C° 0 mm 5 mps 717 mmHg 81%
    10:00 -4°C° 0 mm 5 mps 717 mmHg 79%
    11:00 -4°C° 0 mm 5 mps 717 mmHg 77%
    12:00 -4°C° 0 mm 5 mps 718 mmHg 76%
    13:00 -4°C° 0 mm 5 mps 718 mmHg 75%
    14:00 -4°C° 0 mm 5 mps 718 mmHg 78%
    15:00 -3°C° 0 mm 4 mps 718 mmHg 80%
    16:00 -4°C° 0 mm 3 mps 719 mmHg 83%
    17:00 -4°C° 0.1 mm 3 mps 719 mmHg 85%
    18:00 -4°C° 0.1 mm 3 mps 719 mmHg 87%
    19:00 -4°C° 0.1 mm 3 mps 720 mmHg 88%
    20:00 -4°C° 0 mm 3 mps 720 mmHg 90%
    21:00 -4°C° 0 mm 3 mps 720 mmHg 91%
    22:00 -4°C° 0 mm 3 mps 721 mmHg 92%
    23:00 -4°C° 0.1 mm 3 mps 721 mmHg 91%

    18 December, Monday

    Time Temperature Precipitation Wind Pressure Humidity
    00:00 -4°C° 0.1 mm 3 mps 720 mmHg 90%
    01:00 -4°C° 0.1 mm 4 mps 720 mmHg 90%
    02:00 -4°C° 0 mm 3 mps 720 mmHg 90%
    03:00 -4°C° 0 mm 3 mps 720 mmHg 90%
    04:00 -4°C° 0 mm 3 mps 719 mmHg 90%
    05:00 -4°C° 0.2 mm 3 mps 719 mmHg 90%
    06:00 -4°C° 0.2 mm 4 mps 718 mmHg 90%
    07:00 -4°C° 0.2 mm 4 mps 717 mmHg 90%
    08:00 -3°C° 0.9 mm 4 mps 716 mmHg 90%
    09:00 -3°C° 0.9 mm 4 mps 715 mmHg 90%
    10:00 -3°C° 1 mm 4 mps 714 mmHg 90%
    11:00 -3°C° 0.9 mm 4 mps 714 mmHg 92%
    12:00 -2°C° 0.9 mm 4 mps 713 mmHg 93%
    13:00 -1°C° 0.9 mm 3 mps 713 mmHg 94%
    14:00 -1°C° 0.3 mm 3 mps 713 mmHg 94%
    15:00 -1°C° 0.3 mm 3 mps 713 mmHg 94%
    16:00 -1°C° 0.3 mm 3 mps 714 mmHg 94%
    17:00 -1°C° 0.2 mm 3 mps 715 mmHg 94%
    18:00 -1°C° 0.2 mm 3 mps 715 mmHg 95%
    19:00 -1°C° 0.2 mm 3 mps 716 mmHg 95%
    20:00 -2°C° 0 mm 3 mps 717 mmHg 95%
    21:00 -2°C° 0 mm 3 mps 718 mmHg 94%
    22:00 -4°C° 0 mm 3 mps 719 mmHg 93%
    23:00 -4°C° 0 mm 3 mps 720 mmHg 93%

    19 December, Tuesday

    Time Temperature Precipitation Wind Pressure Humidity
    00:00 -4°C° 0 mm 2 mps 720 mmHg 93%
    01:00 -4°C° 0 mm 2 mps 721 mmHg 93%
    02:00 -5°C° 0 mm 2 mps 722 mmHg 93%
    03:00 -5°C° 0 mm 2 mps 723 mmHg 92%
    04:00 -5°C° 0 mm 2 mps 723 mmHg 92%
    05:00 -6°C° 0 mm 2 mps 724 mmHg 92%
    06:00 -4°C° 0 mm 1 mps 725 mmHg 92%
    07:00 -4°C° 0 mm 1 mps 725 mmHg 92%
    08:00 -4°C° 0 mm 1 mps 726 mmHg 91%
    09:00 -3°C° 0 mm 1 mps 726 mmHg 90%
    10:00 -3°C° 0 mm 1 mps 727 mmHg 89%
    11:00 -2°C° 0 mm 1 mps 727 mmHg 87%
    12:00 -2°C° 0 mm 1 mps 727 mmHg 85%
    13:00 -3°C° 0 mm 2 mps 727 mmHg 83%
    14:00 -4°C° 0 mm 2 mps 727 mmHg 86%
    15:00 -5°C° 0 mm 2 mps 726 mmHg 88%
    16:00 -5°C° 0 mm 2 mps 726 mmHg 90%
    17:00 -6°C° 0 mm 2 mps 726 mmHg 90%
    18:00 -6°C° 0 mm 2 mps 727 mmHg 91%
    19:00 -6°C° 0 mm 2 mps 727 mmHg 91%
    20:00 -4°C° 0 mm 1 mps 727 mmHg 91%
    21:00 -4°C° 0 mm 1 mps 727 mmHg 91%
    22:00 -4°C° 0 mm 1 mps 727 mmHg 92%
    23:00 -4°C° 0 mm 1 mps 727 mmHg 92%
    Show more